Regional Weather Roundup
Issued by NWS

Home | Current Version | Previous Version | Text Only | Print | Product List | Glossary On
Versions: 1 2 3 4 5 6 7 8 9 10 11 12 13 14 15 16 17 18 19 20 21 22 23 24 25 26 27 28 29 30 31 32 33 34 35 36 37 38 39 40 41 42 43 44 45 46 47 48 49 50
982
ASUS44 KFWD 100915
RWRTX
NORTH TEXAS HOURLY WEATHER ROUNDUP
NATIONAL WEATHER SERVICE FORT WORTH TX
300 AM CST WED FEB 10 2016

NOTE: "FAIR" INDICATES FEW OR NO CLOUDS BELOW 12,000 FEET WITH NO
SIGNIFICANT WEATHER AND/OR OBSTRUCTIONS TO VISIBILITY.

TXZ118-119-101000-
DALLAS/FORT WORTH METROPLEX

CITY           SKY/WX    TMP DP  RH WIND       PRES   REMARKS
DFW AIRPORT    CLEAR     39  24  55 CALM      30.32F
DALLAS LOVE    CLEAR     38  27  64 CALM      30.34S
FTW MEACHAM    CLEAR     40  26  57 CALM      30.33S
DAL-EXECUTIVE  PTCLDY    37  25  61 W3        30.32F
FTW-ALLIANCE   CLEAR     33  26  75 CALM      30.33S
FTW-NAS-JRB    CLEAR     39  26  59 NW5       30.33F WCI  36
FTW-SPINKS     CLEAR     31  26  81 S3        30.35S
ARLINGTON      CLEAR     34  26  72 CALM      30.33F
GRAND PRAIRIE  CLEAR     41  25  52 CALM      30.35S
ADDISON        CLEAR     41  27  58 CALM      30.35S
MESQUITE       CLEAR     39  23  53 CALM      30.34S
LANCASTER      CLEAR     35  22  58 CALM      30.34F
$$

TXZ091>094-102>105-117-120-121-131>134-101000-
NORTH CENTRAL TEXAS

CITY           SKY/WX    TMP DP  RH WIND       PRES   REMARKS
SHRMAN/DENISON CLEAR     33  24  70 S3        30.33R
GAINESVILLE    CLEAR     33  23  67 CALM      30.35S
BOWIE          CLEAR     31  24  76 CALM      30.32F
BRIDGEPORT     CLEAR     32  27  81 CALM      30.35S
DECATUR        CLEAR     37  22  54 W3        30.32S
DENTON         CLEAR     32  24  72 CALM      30.34R
MCKINNEY       CLEAR     32  23  69 W3        30.33S
GREENVILLE     CLEAR     36  25  64 CALM      30.33F
ROCKWALL       CLEAR     36  24  61 NE3       30.32S
TERRELL        CLEAR     34  26  72 NE3       30.34S
WAXAHACHIE     CLEAR     38  27  64 NW3       30.34F
CLEBURNE       CLEAR     36  28  75 CALM      30.34F
GRANBURY       CLEAR     34  28  79 CALM      30.35F
$$

TXZ083>090-098>101-113>116-127>130-139>142-154-155-101000-
WESTERN NORTH TEXAS

CITY           SKY/WX    TMP DP  RH WIND       PRES   REMARKS
WICHITA FALLS  CLEAR     34  25  69 SW8       30.32F WCI  27
WF-KICKAPOO    CLEAR     37  28  69 SW5       30.34F WCI  34
VERNON         CLEAR     34  24  66 W8        30.33F WCI  27
ABILENE        CLEAR     38  29  70 S5        30.31F WCI  34
ABILENE-DYESS  CLEAR     33  26  73 S5        30.30F WCI  29
BRECKENRIDGE   CLEAR     38  26  61 S7        30.33F WCI  33
GRAHAM         CLEAR     32  26  78 CALM      30.32S
MINERAL WELLS  CLEAR     35  25  66 SW3       30.32S
STEPHENVILLE   PTCLDY    37  27  69 CALM      30.36S
COMANCHE       CLEAR     42  31  65 NE3       30.34S
BROWNWOOD      PTCLDY    32  28  86 MISG      30.33F
COLEMAN        CLEAR     37  28  71 CALM      30.33S
$$

TXZ143>147-156>162-174-175-101000-
CENTRAL TEXAS

CITY           SKY/WX    TMP DP  RH WIND       PRES   REMARKS
WACO           CLEAR     35  27  72 CALM      30.35S
WACO-MCGREGOR  CLEAR     37  28  70 W3        30.35S
HILLSBORO      CLEAR     35  24  64 CALM      30.34F
CORSICANA      PTCLDY    41  26  55 NW3       30.35S
MEXIA          CLEAR     42  24  48 CALM      30.33F
HEARNE         CLEAR     44  28  55 CALM      30.36R
CAMERON        CLEAR     43  30  61 CALM      30.35S
TEMPLE         CLEAR     39  29  67 N3        30.35S
KILLEEN        CLEAR     44  27  51 E5        30.33S
KILLEEN-SKYLRK CLEAR     43  28  56 CALM      30.34F HAZE
FORT HOOD      CLEAR     45  27  49 E3        30.32S
GATESVILLE     CLEAR     37  30  75 CALM      30.37S
HAMILTON       CLEAR     43  29  57 E6        30.34S WCI  39
LAMPASAS       CLEAR     38  31  78 CALM      30.32S
$$

TXZ095>097-106>112-122>126-135>138-148>153-164>167-101000-
EAST TEXAS

CITY           SKY/WX    TMP DP  RH WIND       PRES   REMARKS
PARIS          CLEAR     34  18  51 NW5       30.30F WCI  30
SULPHUR SPRNGS CLEAR     36  23  59 CALM      30.34S
MOUNT PLEASANT CLEAR     35  24  63 W3        30.32S
GILMER           N/A    N/A N/A N/A MISG        N/A
MINEOLA        CLEAR     36  27  69 CALM      30.33S
TYLER          CLEAR     39  23  52 W5        30.32R WCI  36
LONGVIEW       CLEAR     38  22  52 W3        30.31R
MARSHALL       CLEAR     34  25  68 CALM      30.33R
ATHENS         CLEAR     34  27  75 CALM      30.33R
PALESTINE      CLEAR     36  28  74 CALM      30.34F
JACKSONVILLE   CLEAR     42  21  43 CALM      30.33S
HENDERSON      CLEAR     33  26  76 CALM      30.33S
CENTER         FAIR      39  24  54 NW6       30.30S WCI  35
NACOGDOCHES    CLEAR     34  25  69 N3        30.32R
LUFKIN         CLEAR     34  29  82 CALM      30.32R
$$

SUPPLEMENTAL OBSERVATIONS (CENTRAL)

CITY           SKY/WX    TMP DP  RH WIND       PRES   REMARKS
LAKE TEXOMA      N/A     41  23  48 N6          N/A  WCI  37
CADDO GRASSLND   N/A     32  25  74 CALM        N/A
PAT MAYSE LAKE   N/A     34  19  55 N3          N/A
GREENVILLE       N/A     34  23  64 SW5         N/A  WCI  30
CEDAR HILL       N/A     36  27  69 SE2         N/A
ATHENS           N/A     37  28  70 W1          N/A
LAKE LIMESTONE   N/A     37  32  81 N1          N/A
MCGREGOR         N/A     34  28  80 SW3         N/A
$$

SUPPLEMENTAL OBSERVATIONS (WEST)

CITY           SKY/WX    TMP DP  RH WIND       PRES   REMARKS
MILLERS CREEK    N/A     39  28  65 S3          N/A
LBJ GRASSLAND    N/A     37  25  60 NE2         N/A
COMANCHE         N/A     41  27  56 NE2         N/A
HAMBY            N/A     37  30  75 SE5         N/A  WCI  34
IVIE RESERVOIR   N/A     43  27  52 NW2         N/A
COLORADO BEND    N/A     43  28  56 S3          N/A
$$

SUPPLEMENTAL OBSERVATIONS (EAST)

CITY           SKY/WX    TMP DP  RH WIND       PRES   REMARKS
CLARKSVILLE      N/A     34  19  55 NW6         N/A  WCI  29
TEXARKANA        N/A     30  23  74 CALM        N/A
LINDEN           N/A     34  21  60 W2          N/A
CADDO LAKE       N/A     32  23  69 CALM        N/A
GILMER           N/A     34  27  75 CALM        N/A
HENDERSON        N/A     36  25  64 CALM        N/A
LUFKIN           N/A     36  32  87 MISG        N/A
N SABINE NF      N/A     34  28  80 MISG        N/A
S SABINE NF      N/A     37  23  56 SW2         N/A
$$

SUPPLEMENTAL OBSERVATIONS ARE A COLLECTION OF AUTOMATED INSTRUMENTS
THAT ARE MAINTAINED BY A VARIETY OF FEDERAL AND STATE AGENCIES.
CERTAIN ELEMENTS...SUCH AS HUMIDITY VALUES AND SUSTAINED WIND
SPEEDS...MAY BE APPROXIMATED.





USA.gov is the U.S. government's official web portal to all federal, state and local government web resources and services.